SAS4016 ENZV-ENBR

Flight info

Callsign SAS4016
Flight time 0h 26m
Altitude 16000
Route ALUVA
Aircraft B737/M-SDE2E3FGHIRWXY/LB1

Departure

Time 2026-05-08 15:39
Airport Stavanger Airport, Sola (ENZV)

Arrival

Time 2026-05-08 16:05
Airport Bergen Airport, Flesland (ENBR)
Time Latitude Longitude Altitude Speed Heading
2026-05-08 15:15 58.88315 5.63065 25 ft 0 kts 255°
2026-05-08 15:30 58.88316 5.63073 24 ft 2 kts 255°
2026-05-08 15:30 58.88320 5.63101 24 ft 2 kts 256°
2026-05-08 15:30 58.88324 5.63129 24 ft 2 kts 255°
2026-05-08 15:30 58.88328 5.63157 25 ft 2 kts 256°
2026-05-08 15:31 58.88332 5.63184 25 ft 2 kts 256°
2026-05-08 15:31 58.88334 5.63199 25 ft 0 kts 255°
2026-05-08 15:35 58.88335 5.63195 25 ft 0 kts 291°
2026-05-08 15:35 58.88361 5.63194 25 ft 7 kts
2026-05-08 15:35 58.88430 5.63257 25 ft 14 kts 65°
2026-05-08 15:35 58.88472 5.63410 27 ft 12 kts 28°
2026-05-08 15:36 58.88551 5.63423 27 ft 11 kts
2026-05-08 15:36 58.88639 5.63421 27 ft 15 kts 359°
2026-05-08 15:36 58.88764 5.63417 27 ft 20 kts 359°
2026-05-08 15:36 58.88910 5.63412 25 ft 21 kts
2026-05-08 15:37 58.89057 5.63408 23 ft 21 kts 359°
2026-05-08 15:37 58.89208 5.63404 20 ft 22 kts 359°
2026-05-08 15:37 58.89337 5.63459 17 ft 13 kts 71°
2026-05-08 15:37 58.89344 5.63595 15 ft 8 kts 89°
2026-05-08 15:38 58.89330 5.63706 15 ft 8 kts 131°
2026-05-08 15:38 58.89280 5.63733 15 ft 7 kts 180°
2026-05-08 15:38 58.89100 5.63736 19 ft 64 kts 180°
2026-05-08 15:38 58.88348 5.63755 30 ft 147 kts 178°
2026-05-08 15:39 58.87211 5.63781 728 ft 172 kts 182°
2026-05-08 15:39 58.86103 5.63715 1916 ft 162 kts 182°
2026-05-08 15:39 58.84940 5.63759 2395 ft 176 kts 178°
2026-05-08 15:39 58.83665 5.63835 2886 ft 190 kts 179°
2026-05-08 15:40 58.82296 5.63888 3383 ft 204 kts 179°
2026-05-08 15:40 58.80833 5.63943 3869 ft 219 kts 180°
2026-05-08 15:40 58.79278 5.63970 4324 ft 234 kts 184°
2026-05-08 15:40 58.77716 5.62889 4824 ft 250 kts 218°
2026-05-08 15:41 58.76783 5.60101 5506 ft 261 kts 252°
2026-05-08 15:41 58.76557 5.56609 6275 ft 267 kts 268°
2026-05-08 15:41 58.76996 5.53123 7056 ft 277 kts 298°
2026-05-08 15:41 58.78376 5.50587 7784 ft 286 kts 331°
2026-05-08 15:42 58.80248 5.49336 8503 ft 291 kts 344°
2026-05-08 15:42 58.82187 5.48332 9288 ft 293 kts 343°
2026-05-08 15:42 58.84141 5.47204 10071 ft 296 kts 341°
2026-05-08 15:42 58.86109 5.45988 10665 ft 305 kts 341°
2026-05-08 15:43 58.88166 5.44555 11101 ft 320 kts 336°
2026-05-08 15:43 58.90218 5.42765 11532 ft 335 kts 333°
2026-05-08 15:43 58.92385 5.40738 11979 ft 352 kts 332°
2026-05-08 15:43 58.94632 5.38633 12348 ft 368 kts 333°
2026-05-08 15:44 58.96966 5.36463 12809 ft 380 kts 333°
2026-05-08 15:44 58.99351 5.34256 13616 ft 384 kts 332°
2026-05-08 15:44 59.01755 5.32036 14349 ft 389 kts 332°
2026-05-08 15:44 59.04201 5.29773 15187 ft 392 kts 331°
2026-05-08 15:45 59.06672 5.27484 15877 ft 397 kts 331°
2026-05-08 15:45 59.09160 5.25176 16145 ft 401 kts 331°
2026-05-08 15:45 59.11668 5.22844 16221 ft 402 kts 331°
2026-05-08 15:45 59.14240 5.20615 16189 ft 403 kts 338°
2026-05-08 15:46 59.16949 5.19588 16177 ft 407 kts 352°
2026-05-08 15:46 59.19765 5.19222 16188 ft 408 kts 355°
2026-05-08 15:46 59.22630 5.18969 16190 ft 408 kts 355°
2026-05-08 15:46 59.25454 5.18704 16189 ft 408 kts 355°
2026-05-08 15:47 59.28307 5.18402 16193 ft 408 kts 354°
2026-05-08 15:47 59.31097 5.18078 16192 ft 408 kts 354°
2026-05-08 15:47 59.33924 5.17729 16191 ft 407 kts 354°
2026-05-08 15:47 59.36742 5.17366 16193 ft 407 kts 354°
2026-05-08 15:48 59.42394 5.16621 16194 ft 407 kts 354°
2026-05-08 15:48 59.45198 5.16247 16196 ft 407 kts 354°
2026-05-08 15:48 59.47999 5.15871 16202 ft 407 kts 354°
2026-05-08 15:49 59.50816 5.15492 16169 ft 407 kts 354°
2026-05-08 15:49 59.53622 5.15114 16186 ft 407 kts 354°
2026-05-08 15:49 59.56463 5.14731 16190 ft 408 kts 354°
2026-05-08 15:49 59.59296 5.14347 16184 ft 408 kts 353°
2026-05-08 15:50 59.62098 5.13968 16186 ft 408 kts 353°
2026-05-08 15:50 59.64901 5.13590 16184 ft 408 kts 353°
2026-05-08 15:50 59.67732 5.13205 16196 ft 407 kts 354°
2026-05-08 15:50 59.70549 5.12822 16172 ft 408 kts 353°
2026-05-08 15:51 59.73344 5.12443 16140 ft 409 kts 354°
2026-05-08 15:51 59.76196 5.12056 15755 ft 406 kts 354°
2026-05-08 15:51 59.78988 5.11676 15070 ft 402 kts 353°
2026-05-08 15:51 59.81752 5.11295 14416 ft 399 kts 354°
2026-05-08 15:52 59.84495 5.10916 13756 ft 396 kts 354°
2026-05-08 15:52 59.87210 5.10555 13078 ft 392 kts 354°
2026-05-08 15:52 59.89898 5.10203 12452 ft 388 kts 354°
2026-05-08 15:52 59.92582 5.09844 11790 ft 386 kts 354°
2026-05-08 15:53 59.95235 5.09472 11247 ft 379 kts 354°
2026-05-08 15:53 59.97832 5.09104 10941 ft 367 kts 353°
2026-05-08 15:53 60.00328 5.08784 10777 ft 351 kts 354°
2026-05-08 15:53 60.02714 5.08467 10646 ft 336 kts 354°
2026-05-08 15:54 60.04976 5.08151 10503 ft 323 kts 354°
2026-05-08 15:54 60.07164 5.07831 10337 ft 312 kts 354°
2026-05-08 15:54 60.09307 5.07542 9988 ft 308 kts 354°
2026-05-08 15:54 60.11429 5.07228 9573 ft 306 kts 354°
2026-05-08 15:55 60.13525 5.06900 9232 ft 302 kts 354°
2026-05-08 15:55 60.17659 5.06289 8521 ft 297 kts 355°
2026-05-08 15:55 60.19725 5.06003 8144 ft 295 kts 355°
2026-05-08 15:56 60.21737 5.05710 7791 ft 293 kts 355°
2026-05-08 15:56 60.23743 5.05419 7438 ft 290 kts 355°
2026-05-08 15:56 60.25737 5.05139 7087 ft 288 kts 355°
2026-05-08 15:56 60.27723 5.04853 6694 ft 288 kts 355°
2026-05-08 15:57 60.29742 5.04564 6200 ft 292 kts 355°
2026-05-08 15:57 60.31774 5.04278 5825 ft 290 kts 355°
2026-05-08 15:57 60.33765 5.03994 5460 ft 289 kts 355°
2026-05-08 15:57 60.35773 5.03709 5052 ft 289 kts 356°
2026-05-08 15:58 60.37763 5.03432 4653 ft 289 kts 356°
2026-05-08 15:58 60.39761 5.03145 4359 ft 284 kts 355°
2026-05-08 15:58 60.41678 5.02867 4237 ft 274 kts 355°
2026-05-08 15:58 60.43545 5.02630 4156 ft 262 kts 359°
2026-05-08 15:59 60.45296 5.03040 4074 ft 250 kts 22°
2026-05-08 15:59 60.46656 5.04902 3994 ft 228 kts 57°
2026-05-08 15:59 60.47458 5.07499 3851 ft 212 kts 74°
2026-05-08 15:59 60.47795 5.10326 3515 ft 202 kts 99°
2026-05-08 16:00 60.47600 5.13083 3251 ft 193 kts 114°
2026-05-08 16:00 60.46949 5.15213 3043 ft 174 kts 146°
2026-05-08 16:00 60.45921 5.16253 2967 ft 158 kts 171°
2026-05-08 16:00 60.44888 5.16488 2976 ft 142 kts 172°
2026-05-08 16:01 60.43951 5.16867 2949 ft 135 kts 172°
2026-05-08 16:01 60.43021 5.17176 2770 ft 137 kts 172°
2026-05-08 16:01 60.42110 5.17484 2606 ft 127 kts 172°
2026-05-08 16:01 60.41245 5.17774 2405 ft 125 kts 172°
2026-05-08 16:02 60.40394 5.18067 2240 ft 122 kts 172°
2026-05-08 16:02 60.39577 5.18346 2063 ft 115 kts 172°
2026-05-08 16:02 60.38809 5.18598 1908 ft 109 kts 174°
2026-05-08 16:02 60.38040 5.18840 1757 ft 113 kts 171°
2026-05-08 16:03 60.37278 5.19116 1584 ft 111 kts 173°
2026-05-08 16:03 60.36494 5.19372 1455 ft 116 kts 172°
2026-05-08 16:03 60.35686 5.19653 1268 ft 118 kts 172°
2026-05-08 16:03 60.34890 5.19924 1121 ft 118 kts 171°
2026-05-08 16:04 60.34049 5.20212 946 ft 123 kts 171°
2026-05-08 16:04 60.33204 5.20501 773 ft 123 kts 171°
2026-05-08 16:04 60.32361 5.20785 600 ft 126 kts 171°
2026-05-08 16:04 60.31511 5.21078 431 ft 122 kts 170°
2026-05-08 16:05 60.30664 5.21366 250 ft 126 kts 171°
2026-05-08 16:05 60.29805 5.21647 158 ft 119 kts 171°
2026-05-08 16:05 60.29149 5.21875 159 ft 67 kts 169°
2026-05-08 16:05 60.28850 5.21976 160 ft 25 kts 170°
2026-05-08 16:06 60.28708 5.22023 159 ft 20 kts 167°
2026-05-08 16:06 60.28666 5.22232 161 ft 17 kts 80°
2026-05-08 16:06 60.28690 5.22455 163 ft 15 kts 65°
2026-05-08 16:06 60.28716 5.22652 164 ft 13 kts 79°